Flag for Germany Weather past 2 weeks in Buxtehude, Lower Saxony, Germany

Now
52 °F

Broken clouds.


Feels Like: 49 °F
Forecast: 51 / 61 °F
Wind: 7 mph from Southwest

Location: Hamburg-Fuhlsbuettel

Current Time: Aug 23, 2014 at 8:41:25 AM

Latest Report: Aug 23, 2014 at 7:50 AM


Visibility: 6 mi

Pressure: 29.83 "Hg

Humidity: 94%

Dew point: 50 °F

Location of BuxtehudeLocation

Historic Weather in Buxtehude — Graph

°F

Buxtehude temperature yesterday

Maximum temperature yesterday: 66 °F (at 12:20 PM)
Minimum temperature yesterday: 52 °F (at 1:50 AM)
Average temperature yesterday: 59 °F

Past Weeks' High & Low Weather Summary

 TemperatureHumidityPressure
High79 °F (Aug 8, 3:20 PM)100% (Aug 8, 7:20 AM)29.98 "Hg (Aug 8, 7:20 AM)
Low46 °F (Aug 21, 4:20 AM)34% (Aug 8, 3:50 PM)29.47 "Hg (Aug 18, 10:20 AM)
Average61 °F76%29.77 "Hg
* Reported Aug 8 7:20 AM — Aug 23 7:20 AM, Buxtehude, Weather by CustomWeather, © 2014

Note: Actual official high and low records may vary slightly from our data, if they occured in-between our weather recording intervals... More about our weather records

Advertising

Buxtehude weather history for previous 24 hours

 ConditionsComfort  
Time TempWeatherWind HumidityBarometerVisibility
7:20 AM
Aug 23
52 °FPartly sunny.7 mph94%29.80 "Hg6 mi
6:50 AM52 °FPassing clouds.9 mph94%29.80 "Hg6 mi
6:20 AM52 °FPassing clouds.9 mph94%29.80 "Hg6 mi
5:50 AM52 °FPartly cloudy.7 mph94%29.80 "HgN/A
5:20 AM52 °FPassing clouds.8 mph94%29.80 "HgN/A
4:50 AM52 °FPartly cloudy.9 mph94%29.80 "HgN/A
4:20 AM52 °FPartly cloudy.9 mph94%29.80 "HgN/A
3:50 AM52 °FPassing clouds.8 mph94%29.80 "HgN/A
3:20 AM52 °FPassing clouds.10 mph94%29.80 "HgN/A
2:50 AM52 °FPassing clouds.9 mph94%29.80 "HgN/A
2:20 AM54 °FPassing clouds.12 mph94%29.80 "HgN/A
1:50 AM54 °FPartly cloudy.10 mph94%29.80 "HgN/A
1:20 AM54 °FPartly cloudy.12 mph94%29.80 "HgN/A
12:50 AM54 °FPartly cloudy.10 mph88%29.80 "HgN/A
12:20 AM54 °FPartly cloudy.12 mph94%29.80 "HgN/A
11:50 PM
Aug 22
54 °FPartly cloudy.12 mph94%29.80 "HgN/A
11:20 PM54 °FPartly cloudy.12 mph94%29.80 "HgN/A
10:50 PM54 °FPartly cloudy.12 mph94%29.80 "HgN/A
10:20 PM54 °FPartly cloudy.9 mph94%29.80 "HgN/A
9:50 PM54 °FLight rain. Partly cloudy.10 mph94%29.77 "HgN/A
9:20 PM55 °FLight rain. Broken clouds.10 mph94%29.77 "HgN/A
8:50 PM57 °FLight rain. Broken clouds.16 mph88%29.77 "HgN/A
8:20 PM61 °FSprinkles. Broken clouds.12 mph68%29.77 "HgN/A
7:50 PM61 °FBroken clouds.12 mph68%29.77 "HgN/A
7:20 PM61 °FScattered showers. Broken clouds.13 mph68%29.74 "HgN/A
6:50 PM63 °FScattered showers. Broken clouds.14 mph64%29.77 "HgN/A
6:20 PM63 °FBroken clouds.15 mph64%29.77 "HgN/A
5:50 PM61 °FScattered showers. Broken clouds.7 mph72%29.77 "HgN/A
5:20 PM63 °FScattered showers. Broken clouds.15 mph64%29.77 "HgN/A
4:50 PM64 °FBroken clouds.14 mph60%29.77 "HgN/A
4:20 PM64 °FBroken clouds.15 mph56%29.77 "HgN/A
3:50 PM64 °FBroken clouds.14 mph56%29.77 "HgN/A
3:20 PM64 °FBroken clouds.18 mph56%29.77 "HgN/A
2:50 PM64 °FBroken clouds.16 mph52%29.80 "HgN/A
2:20 PM64 °FPartly sunny.16 mph56%29.80 "HgN/A
1:50 PM64 °FPartly sunny.16 mph56%29.80 "HgN/A
1:20 PM64 °FPartly sunny.21 mph52%29.80 "HgN/A
12:50 PM63 °FScattered clouds.20 mph59%29.80 "HgN/A
12:20 PM66 °FScattered clouds.21 mph60%29.80 "HgN/A
11:50 AM63 °FScattered clouds.22 mph64%29.80 "HgN/A
11:20 AM63 °FScattered clouds.18 mph64%29.80 "HgN/A
10:50 AM63 °FScattered clouds.17 mph68%29.83 "HgN/A
10:20 AM61 °FScattered clouds.20 mph68%29.83 "HgN/A
9:50 AM59 °FBroken clouds.16 mph72%29.83 "HgN/A
9:20 AM59 °FSunny.17 mph72%29.83 "Hg10 mi
8:50 AM57 °FSunny.17 mph77%29.83 "Hg10 mi
8:20 AM57 °FSunny.15 mph77%29.83 "Hg10 mi
Weather by CustomWeather, © 2014

See weather overviewHow to use our weather pages